Location: �alt?
(36.5468°N, 30.2845°E)
Time: 03:59:49
(UTC+00:00)

Daily predictions for brighter satellites

Satellite Brightness Start Highest point End
(mag) Time Altitude Azimuth Time Altitude Azimuth Time Altitude Azimuth
ATLAS 5 CENTAUR R/B 4.5 00:30:48 22° ENE 00:30:48 22° ENE 00:34:31 10° E
Cosmos 1697 Rocket 4.1 01:08:43 33° NE 01:09:22 34° ENE 01:14:24 10° SE
Centaur D-1A AC-31 4.0 01:16:43 13° SE 01:16:43 13° SE 01:17:26 10° SE
COSMOS 2406 4.4 01:19:34 38° NNE 01:19:34 38° NNE 01:23:00 10° NNE
Cosmos 2074 Rocket 4.4 01:14:43 10° N 01:25:00 22° SSE 01:27:05 10° SSE
Cosmos 2082 Rocket 2.2 01:45:12 76° SE 01:45:23 77° ESE 01:51:07 10° NNE
IRIDIUM 104 4.5 01:47:17 68° NE 01:47:17 68° NE 01:51:57 10° N
Spot 4 Rocket 4.1 01:47:49 10° NNE 01:52:18 69° N 01:52:18 69° N
IRIDIUM 114 4.3 01:56:25 72° N 01:56:25 72° N 02:01:06 10° N
ATLAS CENTAUR R/B 2.1 01:59:56 49° ENE 01:59:56 49° ENE 02:03:15 10° NE
USA 234 3.5 01:55:44 10° NE 02:01:58 49° NW 02:02:46 47° WNW
IRIDIUM 103 4.3 02:05:34 65° NW 02:05:34 65° NW 02:10:14 10° N
Cosmos 2221 Rocket 4.4 02:00:59 10° SSE 02:05:15 50° E 02:09:32 10° NNE
GP-B 3.0 02:06:29 75° SSE 02:06:51 84° E 02:11:18 10° N
ARIANE 5 R/B 4.3 02:04:01 10° N 02:05:21 17° NNW 02:05:21 17° NNW
Cosmos 2327 Rocket 4.4 02:03:11 10° N 02:09:33 89° W 02:15:46 10° S
Okean 2 Rocket 4.4 02:07:24 10° N 02:11:41 41° E 02:15:57 10° SSE
Cosmos 1833 Rocket 4.0 02:15:19 24° NNW 02:15:19 24° NNW 02:18:27 10° N
Nadezhda 1 Rocket 3.9 02:12:39 45° SW 02:14:13 58° W 02:20:13 10° N
ATLAS 5 CENTAUR R/B 2.4 02:12:25 44° WNW 02:14:17 64° WSW 02:21:08 10° SSE
Cosmos 2369 3.7 02:12:50 10° NNW 02:18:36 87° ENE 02:24:20 10° SSE
Hubble Space Telescope 2.3 02:19:44 24° S 02:19:44 24° S 02:22:46 10° SE
DELTA 2 R/B (1) 3.5 02:23:13 45° WNW 02:24:58 90° N 02:30:32 10° ESE
Cosmos 1610 Rocket 4.4 02:19:05 10° NNW 02:25:12 63° W 02:31:23 10° S
CZ-4B R/B 4.2 02:20:39 10° N 02:24:46 35° NW 02:24:46 35° NW
Lacrosse 5 rocket 1.4 02:25:40 49° SSW 02:26:43 80° SE 02:31:04 10° NE
Cosmos 405 4.1 02:23:39 10° N 02:26:58 44° E 02:30:16 10° SSE
CZ-2C R/B 4.3 02:26:41 10° N 02:28:17 22° NNW 02:28:17 22° NNW
METEOR-M 4.0 02:25:16 10° N 02:30:34 67° WNW 02:35:51 10° SSW
ALOS 2.8 02:26:21 10° N 02:30:05 37° NW 02:30:05 37° NW
Cosmos 2360 4.3 02:27:54 19° NW 02:31:51 53° WSW 02:37:21 10° S
Cosmos 1470 3.8 02:28:35 10° N 02:32:21 45° E 02:36:05 10° SSE
CZ-2C R/B 3.7 02:28:23 10° N 02:31:00 23° NW 02:31:00 23° NW
Cosmos 2341 Rocket 4.2 02:26:52 10° N 02:33:12 77° E 02:39:26 10° S
Cosmos 1980 Rocket 2.2 02:28:45 10° NNW 02:34:29 89° ENE 02:40:10 10° SSE
Meteor 1-22 Rocket 4.3 02:31:04 10° N 02:37:06 88° W 02:42:51 10° S
Cosmos 1484 Rocket 2.8 02:34:07 10° N 02:37:47 51° WNW 02:38:13 48° W
Cosmos 1726 2.2 02:35:25 10° N 02:39:05 77° E 02:42:45 10° S
Cosmos 2298 Rocket 3.9 02:38:46 10° NNW 02:44:01 68° WSW 02:49:15 10° S
Envisat 4.0 02:40:00 10° NNE 02:44:54 48° E 02:49:47 10° S
COSMOS 2455 2.8 02:38:55 10° SSW 02:44:55 88° ESE 02:50:59 10° NNE
H-2A R/B 3.9 02:42:16 10° NNE 02:45:57 45° E 02:49:33 10° S
Cosmos 2151 Rocket 3.5 02:46:30 10° N 02:50:55 86° W 02:55:19 10° S
SJ-6F 4.4 02:48:13 10° N 02:52:21 60° WNW 02:56:28 10° SSW
Okean 1 Rocket 4.3 02:48:39 10° N 02:52:53 44° E 02:57:07 10° SSE
Cosmos 1697 Rocket 3.4 02:50:39 21° WNW 02:53:10 29° WSW 02:57:56 10° SSW
GEOS 3 Rocket 3.8 02:49:31 10° NNE 02:54:27 48° NW 02:58:04 18° WSW
Cosmos 1674 Rocket 3.4 02:50:40 10° SSW 02:55:00 73° W 02:59:21 10° N
FALCON 9 DEB 3.8 02:54:04 18° NNW 02:55:56 43° NE 02:58:47 10° ESE
SOZ 4.1 02:56:29 32° WSW 02:57:31 65° NW 03:00:32 10° NE
Sich 1 Rocket 4.0 02:53:36 10° NNW 02:57:41 38° W 03:01:47 10° SSW
Landsat 5 4.5 02:55:27 10° SE 02:59:05 44° ENE 03:02:48 10° N
Cosmos 1346 Rocket 4.5 02:56:32 10° SSE 03:00:13 37° E 03:03:56 10° NNE
FALCON 9 DEB 4.4 02:58:23 12° NNW 03:01:17 36° NE 03:04:25 10° ESE
Cosmos 1300 Rocket 4.3 02:58:35 10° NNW 03:02:23 30° W 03:06:12 10° SSW
Cosmos 2278 3.6 02:56:55 10° NNW 03:02:38 72° WSW 03:08:18 10° SSE
Cosmos 1125 Rocket 3.6 03:01:11 10° NNW 03:06:11 49° WSW 03:11:09 10° S
ATLAS 2A CENTAUR R/B 3.4 03:04:02 11° SW 03:06:53 21° S 03:13:12 10° SE
NOSS 3-1 (C) 4.2 03:03:17 10° NW 03:11:09 71° WSW 03:20:07 10° SSE
Cosmos 773 Rocket 3.9 03:07:00 10° SSW 03:12:10 85° WNW 03:17:26 10° NNE
Lacrosse 5 4.3 03:11:05 10° N 03:13:50 14° NNE 03:16:35 10° ENE
Cosmos 2366 rocket 4.0 03:08:49 10° N 03:15:09 77° W 03:21:29 10° S
Cosmos 1674 2.8 03:11:38 10° S 03:15:18 77° E 03:19:01 10° N
CBERS 1 LM4 rocket 4.4 03:11:21 10° N 03:16:26 73° WNW 03:21:18 10° SSW
Cosmos 1959 Rocket 4.4 03:11:08 10° N 03:17:13 74° W 03:23:18 10° S
CZ-4B R/B 3.5 03:14:02 10° N 03:17:40 72° WNW 03:21:19 10° SSW
Cosmos 1340 3.8 03:14:55 10° SW 03:17:54 22° WNW 03:20:54 10° NNW
Cosmos 864 Rocket 4.4 03:13:42 10° N 03:19:51 72° W 03:26:02 10° S
Cosmos 2181 Rocket 4.2 03:14:22 10° SSW 03:20:15 48° W 03:26:13 10° N
SL-16 R/B 3.0 03:14:42 10° NNW 03:20:17 56° ENE 03:25:50 10° SE
In-Cosmos 22 4.0 03:15:26 10° SSW 03:20:43 69° W 03:26:00 10° N
H-2A R/B 4.4 03:17:12 10° SE 03:20:46 26° ENE 03:24:17 10° NNE
Cosmos 1184 Rocket 3.0 03:20:54 10° S 03:24:04 72° E 03:27:15 10° NNE
Cosmos 371 Rocket 4.1 03:24:36 10° N 03:29:25 55° ENE 03:34:11 10° SSE
Cosmos 2082 Rocket 3.8 03:27:07 11° W 03:30:05 15° NW 03:33:20 10° NNW
KORONAS-FOTON 3.7 03:26:53 10° SSW 03:30:35 62° W 03:34:19 10° N
IRAS Rocket 4.5 03:25:28 10° SSE 03:31:05 81° ENE 03:36:45 10° NNW
Cosmos 1626 2.1 03:32:13 10° S 03:35:53 88° ESE 03:39:36 10° N
Meteor 1-31 Rocket 3.1 03:33:00 10° N 03:36:35 41° WNW 03:40:09 10° SW
ATLAS CENTAUR R/B 3.3 03:36:36 10° WNW 03:38:32 13° NW 03:40:31 10° NNW
Nadezhda 3 Rocket 4.1 03:32:31 10° S 03:38:40 83° E 03:44:50 10° N
Cosmos 2322 Rocket 2.9 03:33:10 10° NNW 03:38:45 60° ENE 03:44:19 10° SE
COSMO-SKYMED 1 2.8 03:39:45 10° S 03:43:55 48° W 03:48:08 10° NNW
Cosmos 1707 4.2 03:42:11 10° WSW 03:44:56 18° WNW 03:47:41 10° NNW
